DW0000 Weather Reports


time (UTC)temp
C
wind
direction
speed
KPH
gust
KPH
rain 1hr
cm
rain 24hr
cm
rain mn
cm
humidity
%
barometer
mb
20220124095457 16 98 16.1 22.5 0.00 0.64 0.64 91 1013.0
20220124094959 16 102 14.5 20.9 0.00 0.64 0.64 92 1013.1
20220124093458 16 100 16.1 22.5 0.00 0.64 0.64 92 1013.1
20220124091958 16 101 14.5 25.7 0.00 0.64 0.64 91 1013.1
20220124090458 16 103 17.7 27.4 0.00 0.64 0.64 91 1012.8
20220124085959 16 101 17.7 27.4 0.00 0.64 0.64 92 1012.7
20220124084959 16 102 16.1 29.0 0.00 0.64 0.64 92 1012.7
20220124083958 16 100 20.9 25.7 0.00 0.64 0.64 92 1012.5
20220124083458 16 97 19.3 25.7 0.00 0.64 0.64 92 1012.6
20220124082458 16 91 17.7 27.4 0.00 0.64 0.64 91 1012.7
20220124081457 17 106 3.2 19.3 0.00 0.64 0.64 89 1012.8
20220124080958 17 111 4.8 25.7 0.00 0.64 0.64 88 1012.8
20220124080458 17 63 12.9 27.4 0.00 0.64 0.64 86 1012.7
20220124075959 18 28 12.9 32.2 0.00 0.64 0.64 84 1012.7
20220124075458 18 14 19.3 32.2 0.00 0.64 0.64 79 1012.7
20220124074959 18 71 8.0 32.2 0.00 0.64 0.64 75 1012.7
20220124074458 18 113 11.3 20.9 0.00 0.64 0.64 75 1012.5
20220124073959 18 116 8.0 19.3 0.00 0.64 0.64 74 1012.4
20220124073457 18 104 11.3 19.3 0.00 0.64 0.64 73 1012.3
20220124072959 18 103 9.7 19.3 0.00 0.64 0.64 74 1012.3
20220124072457 18 104 11.3 27.4 0.00 0.64 0.64 73 1012.2
20220124071458 18 88 14.5 24.1 0.00 0.64 0.64 73 1012.1
20220124065959 18 100 14.5 25.7 0.00 0.64 0.64 72 1012.0
20220124064959 18 109 14.5 22.5 0.00 0.64 0.64 74 1011.9
20220124064458 18 99 19.3 29.0 0.00 0.64 0.64 75 1011.8
20220124064002 18 108 11.3 20.9 0.00 0.64 0.64 78 1012.0
20220124063502 18 102 11.3 20.9 0.00 0.64 0.64 79 1012.2
20220124063000 18 122 8.0 14.5 0.00 0.64 0.64 80 1012.3
20220124062458 18 103 9.7 25.7 0.00 0.64 0.64 78 1012.3
20220124061959 18 112 11.3 22.5 0.00 0.64 0.64 79 1012.0
20220124061458 18 101 11.3 22.5 0.00 0.64 0.64 83 1012.0
20220124060959 18 114 9.7 19.3 0.00 0.64 0.64 83 1012.2
20220124060458 18 129 4.8 16.1 0.00 0.64 0.64 82 1012.3
20220124055000 18 122 8.0 20.9 0.00 0.64 0.64 82 1012.3
20220124054458 18 98 4.8 20.9 0.00 0.64 0.64 83 1012.2
20220124053959 18 101 8.0 22.5 0.00 0.64 0.64 84 1012.1
20220124053458 18 123 9.7 20.9 0.00 0.64 0.64 84 1012.1
20220124052959 18 101 11.3 20.9 0.00 0.64 0.64 82 1012.1
20220124051959 18 100 16.1 24.1 0.00 0.64 0.64 77 1012.0
20220124050958 18 102 16.1 32.2 0.00 0.64 0.64 81 1012.0
20220124050458 18 89 19.3 27.4 0.00 0.64 0.64 80 1012.2
20220124045459 18 114 9.7 16.1 0.00 0.64 0.64 81 1012.3
20220124044458 19 61 16.1 25.7 0.00 0.64 0.64 84 1012.6
20220124044003 20 48 17.7 35.4 0.00 0.64 0.64 81 1012.4
20220124043457 20 74 8.0 20.9 0.00 0.64 0.64 76 1012.4
20220124042959 20 57 6.4 19.3 0.00 0.64 0.64 75 1012.4
20220124042457 20 106 3.2 22.5 0.00 0.64 0.64 75 1012.4
20220124042000 20 108 4.8 14.5 0.03 0.64 0.64 74 1012.4
20220124041458 20 114 6.4 11.3 0.03 0.64 0.64 74 1012.4
20220124040958 20 127 6.4 16.1 0.03 0.64 0.64 74 1012.4
20220124035958 20 106 6.4 27.4 0.03 0.64 0.64 75 1012.5
20220124034457 20 86 9.7 22.5 0.03 0.64 0.64 73 1012.6
20220124033958 20 122 9.7 22.5 0.03 0.64 0.64 72 1012.7
20220124032959 20 106 9.7 25.7 0.03 0.64 0.64 72 1012.8
20220124031457 20 170 6.4 16.1 0.00 0.58 0.58 73 1013.0
20220124030458 20 106 8.0 14.5 0.00 0.58 0.58 75 1013.0
20220124024959 20 100 8.0 19.3 0.00 0.58 0.58 73 1013.1
20220124024457 20 85 8.0 24.1 0.00 0.58 0.58 73 1013.2
20220124023958 20 88 8.0 22.5 0.00 0.58 0.58 72 1013.1
20220124022457 20 88 8.0 19.3 0.00 0.58 0.58 76 1013.3
20220124021957 20 99 4.8 20.9 0.00 0.58 0.58 77 1013.4
20220124021458 20 113 8.0 19.3 0.00 0.58 0.58 77 1013.4
20220124020959 19 143 4.8 19.3 0.00 0.58 0.58 76 1013.4
20220124020500 19 123 8.0 19.3 0.00 0.58 0.58 78 1013.5
20220124015958 19 70 6.4 16.1 0.00 0.58 0.58 81 1013.6
20220124014958 20 79 9.7 19.3 0.00 0.58 0.58 82 1013.6
20220124014457 20 117 9.7 19.3 0.00 0.58 0.58 83 1013.6
20220124013958 20 97 12.9 25.7 0.00 0.58 0.58 84 1013.5
20220124013457 20 95 14.5 24.1 0.00 0.58 0.58 84 1013.4
20220124012958 20 121 8.0 19.3 0.00 0.58 0.58 83 1013.5
20220124012457 20 106 8.0 22.5 0.00 0.58 0.58 83 1013.6
20220124011958 20 92 8.0 22.5 0.00 0.58 0.58 84 1013.7
20220124011457 20 106 4.8 19.3 0.00 0.58 0.58 86 1013.6
20220124010958 19 91 11.3 20.9 0.00 0.58 0.58 86 1013.5
20220124005457 19 109 9.7 16.1 0.00 0.58 0.58 85 1013.5
20220124003958 19 102 11.3 22.5 0.00 0.58 0.58 86 1013.7
20220124002958 19 109 9.7 19.3 0.00 0.58 0.58 86 1013.8
20220124001958 19 95 11.3 19.3 0.00 0.58 0.58 88 1013.9
20220124001457 19 107 9.7 19.3 0.00 0.58 0.58 88 1013.9
20220124000958 19 95 11.3 19.3 0.00 0.58 0.58 88 1014.0
20220124000457 19 102 12.9 20.9 0.00 0.58 0.58 89 1014.0
20220123235458 18 96 12.9 22.5 0.00 0.58 0.58 89 1014.0
20220123234000 19 95 11.3 19.3 0.00 0.58 0.58 94 1013.9
20220123233457 20 91 11.3 20.9 0.00 0.58 0.58 95 1013.7
20220123231958 20 98 11.3 19.3 0.00 0.58 0.58 97 1013.8
20220123231458 20 100 14.5 20.9 0.00 0.58 0.58 97 1013.8
20220123230958 20 99 9.7 19.3 0.00 0.58 0.58 97 1013.9
20220123225959 19 99 9.7 19.3 0.03 0.58 0.58 98 1014.0
20220123225457 19 91 11.3 19.3 0.03 0.58 0.58 98 1014.1
20220123224958 19 96 12.9 19.3 0.03 0.58 0.58 98 1014.1
20220123223957 19 102 8.0 14.5 0.05 0.58 0.58 98 1014.1
20220123223457 19 111 6.4 12.9 0.10 0.58 0.58 98 1014.2
20220123222958 19 105 8.0 12.9 0.13 0.58 0.58 98 1014.2
20220123222457 19 111 4.8 12.9 0.13 0.58 0.58 97 1014.2
20220123221958 19 131 6.4 12.9 0.13 0.58 0.58 97 1014.3
20220123221457 19 132 4.8 12.9 0.15 0.58 0.58 97 1014.3
20220123220957 18 108 8.0 14.5 0.15 0.58 0.58 97 1014.3
20220123220457 18 114 6.4 16.1 0.15 0.58 0.58 97 1014.4
20220123215957 18 103 9.7 16.1 0.13 0.56 0.56 97 1014.4
20220123214957 18 106 4.8 8.0 0.15 0.56 0.56 97 1014.4
20220123213958 18 119 4.8 9.7 0.13 0.53 0.53 97 1014.4
20220123213457 18 121 4.8 12.9 0.10 0.51 0.51 97 1014.4
20220123212958 18 114 3.2 12.9 0.05 0.48 0.48 97 1014.4
20220123212457 18 100 4.8 12.9 0.10 0.48 0.48 97 1014.3
20220123211958 18 116 4.8 9.7 0.10 0.48 0.48 97 1014.4
20220123211457 18 116 4.8 9.7 0.05 0.46 0.46 96 1014.4
20220123210958 18 124 3.2 9.7 0.05 0.46 0.46 96 1014.5
20220123204457 18 108 3.2 4.8 0.13 0.41 0.41 96 1014.6
20220123203957 18 118 3.2 9.7 0.13 0.41 0.41 96 1014.7
20220123203457 18 105 4.8 9.7 0.13 0.41 0.41 96 1014.7
20220123202958 18 109 3.2 9.7 0.15 0.41 0.41 96 1014.7
20220123201957 18 110 3.2 11.3 0.13 0.38 0.38 96 1014.7
20220123201457 18 103 8.0 12.9 0.15 0.38 0.38 96 1014.7
20220123200957 18 113 3.2 4.8 0.15 0.38 0.38 96 1014.8
20220123200457 18 113 3.2 4.8 0.15 0.36 0.36 95 1014.7
20220123195958 18 111 3.2 4.8 0.15 0.36 0.36 95 1014.8
20220123195457 17 115 3.2 4.8 0.15 0.33 0.33 95 1014.8
20220123194456 17 115 3.2 4.8 0.15 0.30 0.30 95 1014.8
20220123193958 17 115 3.2 4.8 0.18 0.30 0.30 94 1014.7
20220123193456 17 117 4.8 4.8 0.18 0.30 0.30 94 1014.7
20220123192958 17 135 3.2 4.8 0.18 0.28 0.28 94 1014.7
20220123192457 17 136 4.8 8.0 0.18 0.28 0.28 94 1014.7
20220123191957 17 135 4.8 4.8 0.18 0.28 0.28 93 1014.6
20220123190957 17 51 3.2 4.8 0.15 0.23 0.23 93 1014.6
20220123190457 17 114 1.6 9.7 0.13 0.20 0.20 93 1014.6
20220123185457 17 57 1.6 8.0 0.10 0.18 0.18 93 1014.5
20220123184957 17 30 4.8 11.3 0.05 0.15 0.15 93 1014.4
20220123184457 17 46 6.4 14.5 0.05 0.15 0.15 93 1014.4
20220123183957 17 73 4.8 9.7 0.03 0.13 0.13 94 1014.4
20220123183457 17 69 3.2 9.7 0.03 0.13 0.13 94 1014.4
20220123182959 17 55 4.8 8.0 0.00 0.10 0.10 94 1014.3
20220123181957 17 29 4.8 12.9 0.00 0.10 0.10 94 1014.4
20220123180957 17 49 3.2 8.0 0.00 0.10 0.10 94 1014.3
20220123180457 17 83 1.6 4.8 0.03 0.10 0.10 94 1014.4
20220123175957 17 109 0.0 0.0 0.03 0.10 0.10 94 1014.3
20220123175457 17 109 0.0 0.0 0.03 0.10 0.10 94 1014.3
20220123174458 17 109 0.0 0.0 0.03 0.10 0.10 94 1014.2
20220123173958 17 109 0.0 1.6 0.03 0.10 0.10 94 1014.1
20220123172957 17 109 1.6 3.2 0.03 0.10 0.10 94 1014.1
20220123172456 17 109 0.0 3.2 0.03 0.10 0.10 94 1014.0
20220123171957 17 110 0.0 3.2 0.03 0.10 0.10 94 1013.9
20220123171456 17 110 0.0 1.6 0.03 0.10 0.10 94 1013.8
20220123170957 17 110 0.0 4.8 0.03 0.10 0.10 93 1013.8
20220123170456 17 111 4.8 4.8 0.00 0.05 0.05 93 1013.7
20220123164957 17 101 3.2 4.8 0.03 0.05 0.05 92 1013.6
20220123164456 17 101 3.2 4.8 0.03 0.05 0.05 92 1013.6
20220123163957 17 99 3.2 9.7 0.03 0.05 0.05 92 1013.5
20220123163457 17 97 6.4 11.3 0.03 0.05 0.05 92 1013.5
20220123162957 17 92 8.0 11.3 0.05 0.05 0.05 92 1013.5
20220123162456 17 92 4.8 9.7 0.05 0.05 0.05 92 1013.3
20220123161456 17 99 8.0 9.7 0.05 0.05 0.05 92 1013.2
20220123160457 17 91 4.8 4.8 0.05 0.05 0.05 92 1013.2
20220123155457 17 100 4.8 11.3 0.05 0.05 0.05 91 1013.1
20220123152457 17 131 3.2 4.8 0.00 0.00 0.00 90 1013.2
20220123151957 17 137 3.2 4.8 0.00 0.00 0.00 90 1013.3
20220123151457 17 137 4.8 8.0 0.00 0.00 0.00 90 1013.3
20220123150957 17 109 3.2 4.8 0.00 0.00 0.00 90 1013.4
20220123150457 17 109 3.2 4.8 0.00 0.00 0.00 89 1013.5
20220123145958 17 105 3.2 4.8 0.00 0.00 0.00 89 1013.5
20220123145456 17 105 4.8 4.8 0.00 0.00 0.00 88 1013.5
20220123143957 18 108 4.8 4.8 0.00 0.00 0.00 84 1013.6
20220123143457 18 123 3.2 4.8 0.00 0.00 0.00 84 1013.7
20220123142456 18 182 3.2 4.8 0.00 0.00 0.00 83 1013.8
20220123141959 18 183 3.2 3.2 0.00 0.00 0.00 83 1013.9
20220123140456 18 183 1.6 4.8 0.00 0.00 0.00 81 1013.9
20220123135957 18 183 3.2 4.8 0.00 0.00 0.00 80 1013.8
20220123134456 18 204 3.2 4.8 0.00 0.00 0.00 80 1014.0
20220123133957 18 204 3.2 4.8 0.00 0.00 0.00 81 1014.0
20220123132957 18 204 3.2 4.8 0.00 0.00 0.00 80 1014.1
20220123132456 18 205 3.2 4.8 0.00 0.00 0.00 80 1014.2
20220123131957 18 219 3.2 4.8 0.00 0.00 0.00 80 1014.4
20220123131456 18 219 3.2 4.8 0.00 0.00 0.00 81 1014.4
20220123130957 18 219 1.6 3.2 0.00 0.00 0.00 80 1014.5
20220123130456 18 219 1.6 4.8 0.00 0.00 0.00 80 1014.6
20220123125957 18 219 3.2 4.8 0.00 0.00 0.00 80 1014.6
20220123125456 18 220 4.8 4.8 0.00 0.00 0.00 80 1014.7
20220123123957 18 281 3.2 3.2 0.00 0.00 0.00 80 1014.8
20220123123456 18 281 1.6 3.2 0.00 0.00 0.00 80 1014.8
20220123122957 18 281 0.0 1.6 0.00 0.00 0.00 80 1014.9
20220123121957 18 281 0.0 1.6 0.00 0.00 0.00 79 1014.9
20220123121457 18 281 1.6 3.2 0.00 0.00 0.00 79 1014.8
20220123120957 18 281 1.6 3.2 0.00 0.00 0.00 79 1014.8
20220123120456 18 281 0.0 0.0 0.00 0.00 0.00 79 1014.8
20220123115957 18 281 0.0 1.6 0.00 0.00 0.00 78 1014.9
20220123115456 18 281 3.2 4.8 0.00 0.00 0.00 78 1014.9
20220123114957 18 281 3.2 9.7 0.00 0.00 0.00 78 1015.0
20220123113956 18 281 3.2 9.7 0.00 0.00 0.00 77 1014.9
20220123113456 18 283 1.6 4.8 0.00 0.00 0.00 76 1014.9
20220123112957 18 286 3.2 4.8 0.00 0.00 0.00 77 1015.0
20220123111957 18 286 0.0 3.2 0.00 0.00 0.00 78 1015.0
20220123111458 19 286 0.0 3.2 0.00 0.00 0.00 78 1015.0
20220123110456 19 286 1.6 3.2 0.00 0.00 0.00 75 1015.1
20220123105957 19 286 1.6 3.2 0.00 0.00 0.00 74 1015.1
20220123105455 19 286 1.6 4.8 0.00 0.00 0.00 72 1015.0
20220123104957 19 276 3.2 4.8 0.00 0.00 0.00 71 1014.9
20220123104456 19 267 3.2 4.8 0.00 0.00 0.00 72 1014.8
20220123103957 19 267 0.0 1.6 0.00 0.00 0.00 74 1014.8
20220123103456 19 267 0.0 3.2 0.00 0.00 0.00 74 1014.9
20220123102957 19 267 1.6 3.2 0.00 0.00 0.00 75 1014.9
20220123102456 19 267 3.2 3.2 0.00 0.00 0.00 74 1014.9
20220123101957 19 267 0.0 0.0 0.00 0.00 0.00 75 1014.9
20220123101456 19 267 1.6 4.8 0.00 0.00 0.00 77 1015.0
20220123095957 20 269 3.2 9.7 0.00 0.00 0.00 83 1014.9